This demonstration page uses our WeatherBlox Daily Observations layout. Learn more.

Left ArrowRight Arrow

34.16533, -84.80231

Hourly Observations for August 27, 2019

Temp ( °F °C ) Dew Point ( °F °C ) Humidity (%) Winds ( mph kmh ) Pressure ( in mb ) Visibility ( mi km ) Precip ( " mm )
12:18 am 00:18 Cloudy 72 22.2 69 20.6 91 91 Calm 29.99 1015 10 16 0.00 0.00
12:53 am 00:53 Cloudy 72 22.2 69 20.6 91 91 VRB 3 6 29.97 1015 10 16 0.00 0.00
1:53 am 01:53 Cloudy 72 22.2 70 21.1 94 94 VRB 3 6 29.93 1014 10 16 0.00 0.00
2:26 am 02:26 Cloudy 73 22.8 70 21.1 90 90 E 3 6 29.94 1014 10 16 0.00 0.00
2:49 am 02:49 Cloudy 73 23 70 21 89 89 ESE 5 7 29.92 1013 10 16 0.00 0.00
2:53 am 02:53 Cloudy 73 22.8 70 21.1 90 90 ESE 5 7 29.91 1013 10 16 0.00 0.00
3:26 am 03:26 Cloudy with Light Rain 73 22.8 70 21.1 90 90 Calm 29.92 1013 4 6 0.01 0.25
3:34 am 03:34 Cloudy with Light Rain 72 22.2 71 21.7 97 97 Calm 29.93 1013 3 5 0.02 0.51
3:42 am 03:42 Cloudy with Rain 73 22.8 71 21.7 94 94 Calm 29.93 1013 3 4 0.04 1.02
3:47 am 03:47 Cloudy with Light Rain 73 23 70 21 89 89 Calm 29.92 1013 4 6 0.04 1.02
3:53 am 03:53 Cloudy 73 22.8 70 21.1 90 90 Calm 29.91 1013 8 13 0.04 1.02
4:08 am 04:08 Cloudy 73 22.8 71 21.7 94 94 Calm 29.93 1013 10 16 0.00 0.00
4:53 am 04:53 Cloudy 73 22.8 71 21.7 94 94 Calm 29.93 1014 7 11 0.00 0.00
5:13 am 05:13 Cloudy 73 22.8 71 21.7 94 94 Calm 29.95 1014 8 13 0.01 0.25
5:46 am 05:46 Cloudy 73 22.8 71 21.7 94 94 Calm 29.95 1014 10 16 0.01 0.25
5:53 am 05:53 Cloudy 73 22.8 71 21.7 94 94 Calm 29.93 1014 8 13 0.01 0.25
6:16 am 06:16 Cloudy 73 22.8 71 21.7 94 94 Calm 29.96 1014 8 13 0.00 0.00
6:53 am 06:53 Cloudy 73 22.8 71 21.7 94 94 Calm 29.93 1014 7 11 0.00 0.00
7:06 am 07:06 Cloudy 73 22.8 71 21.7 94 94 Calm 29.95 1014 9 14 0.00 0.00
7:53 am 07:53 Cloudy 73 22.8 71 21.7 94 94 Calm 29.96 1014 9 14 0.00 0.00
8:53 am 08:53 Cloudy 74 23.3 71 21.7 91 91 Calm 29.95 1014 10 16 0.00 0.00
9:09 am 09:09 Cloudy 75 23.9 72 22.2 90 90 Calm 29.96 1015 10 16 0.00 0.00
9:19 am 09:19 Cloudy 75 23.9 71 21.7 88 88 Calm 29.96 1015 10 16 0.00 0.00
9:53 am 09:53 Cloudy 76 24.4 72 22.2 88 88 Calm 29.95 1014 10 16 0.00 0.00
10:50 am 10:50 Cloudy 75 24 72 22 89 89 Calm 29.96 1015 10 16 0.00 0.00
10:53 am 10:53 Cloudy 76 24.4 72 22.2 88 88 Calm 29.95 1014 8 13 0.00 0.00
11:19 am 11:19 Cloudy with Light Rain 76 24.4 72 22.2 88 88 Calm 29.96 1015 3 4 0.01 0.25
11:24 am 11:24 Cloudy with Light Rain 76 24.4 73 22.8 91 91 Calm 29.96 1015 3 5 0.01 0.25
11:34 am 11:34 Cloudy with Light Rain 76 24.4 73 22.8 91 91 Calm 29.96 1015 3 4 0.01 0.25
11:38 am 11:38 Cloudy with Light Rain 76 24.4 73 22.8 91 91 Calm 29.96 1015 2 3 0.02 0.51
11:53 am 11:53 Cloudy with Heavy Rain 75 23.9 73 22.8 94 94 Calm 29.96 1014 1 2 0.11 2.79
12:12 pm 12:12 Cloudy with Light Rain 76 24.4 73 22.8 91 91 NE 3 6 29.96 1015 3 5 0.05 1.27
12:38 pm 12:38 Cloudy with Mist and Fog 76 24.4 74 23.3 94 94 N 3 6 29.96 1015 3 5 0.05 1.27
12:53 pm 12:53 Cloudy 78 25.6 75 23.9 90 90 NNE 6 9 29.95 1014 10 16 0.05 1.27
1:16 pm 13:16 Cloudy 78 25.6 74 23.3 87 87 NE 7 11 29.95 1014 10 16 0.00 0.00
1:38 pm 13:38 Cloudy 79 26.1 74 23.3 85 85 NE 6 9 29.94 1014 10 16 0.00 0.00
1:53 pm 13:53 Cloudy 80 26.7 74 23.3 82 82 NNE 7 11 29.93 1014 10 16 0.00 0.00
2:13 pm 14:13 Cloudy 79 26.1 74 23.3 85 85 NE 6 9 29.93 1013 10 16 0.00 0.00
2:53 pm 14:53 Mostly Cloudy 80 26.7 73 22.8 79 79 ENE 6 9 29.91 1013 10 16 0.00 0.00
3:09 pm 15:09 Cloudy 81 27.2 74 23.3 79 79 NE 7 11 29.91 1013 10 16 0.00 0.00
3:24 pm 15:24 Cloudy 80 26.7 73 22.8 79 79 ENE 9 15 29.92 1013 10 16 0.00 0.00
3:44 pm 15:44 Mostly Cloudy 79 26.1 73 22.8 82 82 E 7 11 29.91 1013 10 16 0.00 0.00
3:51 pm 15:51 Mostly Cloudy 81 27 73 23 79 79 E 6 9 29.90 1013 10 16 0.00 0.00
3:53 pm 15:53 Mostly Cloudy 80 26.7 73 22.8 79 79 E 7 11 29.90 1013 10 16 0.00 0.00
4:53 pm 16:53 Mostly Sunny 83 28.3 74 23.3 74 74 ENE 6 9 29.90 1013 10 16 0.00 0.00
5:09 pm 17:09 Mostly Cloudy 81 27.2 73 22.8 77 77 VRB 3 6 29.90 1013 10 16 0.00 0.00
5:53 pm 17:53 Partly Cloudy 82 27.8 73 22.8 74 74 NE 7 11 29.89 1012 10 16 0.00 0.00
6:53 pm 18:53 Sunny 81 27.2 72 22.2 74 74 ESE 5 7 29.89 1012 10 16 0.00 0.00
7:53 pm 19:53 Sunny 78 25.6 72 22.2 82 82 Calm 29.91 1013 10 16 0.00 0.00
8:53 pm 20:53 Clear 76 24.4 72 22.2 88 88 Calm 29.91 1013 10 16 0.00 0.00
9:53 pm 21:53 Clear 77 25 72 22.2 85 85 Calm 29.95 1014 10 16 0.00 0.00
10:53 pm 22:53 Clear 76 24.4 71 21.7 85 85 Calm 29.95 1014 10 16 0.00 0.00
11:53 pm 23:53 Clear 75 23.9 71 21.7 88 88 Calm 29.94 1014 10 16 0.00 0.00

Powered by AerisWeather